Location: Newark
(50.0336°N, 22.0047°E)
Time: 13:28:17
(UTC+00:00)

N. Korean satellite - Visible Passes

Search period start: 24 January 2020 00:00
Search period end: 03 February 2020 00:00
Orbit: 454 x 507 km, 97.2° (Epoch: 23 January)

Date Brightness Start Highest point End Pass type
(mag) Time Alt. Az. Time Alt. Az. Time Alt. Az.
24 Jan 6.4 04:34:49 10° NNE 04:38:22 85° WNW 04:41:58 10° SSW visible
25 Jan 7.6 04:09:23 10° NNE 04:12:51 47° E 04:16:20 10° S visible
25 Jan 9.6 16:23:32 10° SW 16:25:58 18° W 16:28:26 10° NW visible
26 Jan 8.9 03:44:14 10° NE 03:47:14 25° E 03:50:15 10° SSE visible
26 Jan 7.4 05:17:31 10° N 05:20:36 28° WNW 05:23:44 10° SW visible
26 Jan 8.4 15:57:09 10° SSW 16:00:18 34° W 16:03:30 10° NNW visible
27 Jan 9.9 03:19:38 10° ENE 03:21:32 14° E 03:23:26 10° ESE visible
27 Jan 6.6 04:51:43 10° N 04:55:13 53° WNW 04:58:45 10° SSW visible
28 Jan 6.7 04:26:09 10° NNE 04:29:44 77° ESE 04:33:23 10° S visible
28 Jan 10.0 16:41:34 10° WSW 16:42:59 12° W 16:44:25 10° WNW visible
29 Jan 8.1 04:00:48 10° NNE 04:04:10 38° E 04:07:36 10° SSE visible
29 Jan 7.9 05:34:43 10° NNW 05:37:21 20° WNW 05:40:01 10° WSW visible
29 Jan 9.3 16:14:29 10° SSW 16:17:14 22° W 16:20:02 10° NW visible
30 Jan 9.3 03:35:45 10° NE 03:38:32 21° E 03:41:20 10° SE visible
30 Jan 7.2 05:08:43 10° N 05:12:01 34° WNW 05:15:21 10° SW visible
31 Jan 10.1 03:11:36 10° ENE 03:12:48 11° E 03:14:00 10° ESE visible
31 Jan 6.5 04:42:59 10° N 04:46:35 67° WNW 04:50:13 10° SSW visible
01 Feb 7.1 04:17:29 10° NNE 04:21:05 61° E 04:24:43 10° S visible
01 Feb 9.8 16:32:09 10° SW 16:34:13 15° W 16:36:18 10° NW visible
02 Feb 8.5 03:52:13 10° NNE 03:55:30 31° E 03:58:48 10° SSE visible
02 Feb 7.7 05:25:49 10° NNW 05:28:46 24° WNW 05:31:44 10° WSW visible
02 Feb 9.0 16:05:30 10° SSW 16:08:30 28° W 16:11:33 10° NW visible
